Location: G�ndlingen
(48.0142°N, 7.6396°E)
Time: 08:45:52
(UTC+00:00)

COSMOS 2428 - Pass Details

Date: 05 July 2020
Orbit: 844 x 859 km, 70.9° (Epoch: 05 August)

Event Time Altitude Azimuth Distance (km) Brightness Sun altitude
Exits shadow 20:15:33 - 164° (SSE) 3,035 5.0 -6.5°
Reaches altitude 10° 20:17:21 10° 155° (SSE) 2,459 4.5 -6.7°
Maximum altitude 20:21:49 25° 102° (ESE) 1,660 3.8 -7.2°
Drops below altitude 10° 20:26:18 10° 50° (NE) 2,475 5.1 -7.7°
Sets 20:29:09 0° 37° (NE) 3,417 6.0 -8.1°
